TimeEST,TemperatureF,Dew PointF,Humidity,Sea Level PressureIn,VisibilityMPH,Wind Direction,Wind SpeedMPH,Gust SpeedMPH,PrecipitationIn,Events,Conditions,WindDirDegrees,DateUTC
12:15 AM,21.2,10.4,63,29.96,10.0,WSW,5.8,-,N/A,,Overcast,240,2013-01-04 05:15:00
12:35 AM,21.2,10.4,63,29.95,10.0,SW,5.8,-,N/A,,Scattered Clouds,230,2013-01-04 05:35:00
12:55 AM,21.2,10.4,63,29.95,10.0,SW,4.6,-,N/A,,Clear,230,2013-01-04 05:55:00
1:15 AM,21.2,10.4,63,29.95,10.0,WSW,5.8,-,N/A,,Clear,250,2013-01-04 06:15:00
1:35 AM,21.2,10.4,63,29.94,10.0,WSW,5.8,-,N/A,,Clear,240,2013-01-04 06:35:00
1:55 AM,23.0,12.2,63,29.95,10.0,WSW,6.9,-,N/A,,Partly Cloudy,250,2013-01-04 06:55:00
2:35 AM,23.0,12.2,63,29.94,10.0,WSW,5.8,-,N/A,,Clear,250,2013-01-04 07:35:00
3:15 AM,24.8,12.2,59,29.94,10.0,WSW,5.8,-,N/A,,Partly Cloudy,250,2013-01-04 08:15:00
3:35 AM,24.8,14.0,64,29.93,10.0,WSW,6.9,-,N/A,,Mostly Cloudy,250,2013-01-04 08:35:00
3:55 AM,24.8,14.0,64,29.93,10.0,WSW,8.1,-,N/A,,Mostly Cloudy,250,2013-01-04 08:55:00
4:35 AM,24.8,14.0,64,29.93,10.0,West,6.9,-,N/A,,Clear,260,2013-01-04 09:35:00
5:35 AM,23.0,14.0,68,29.94,10.0,West,6.9,-,N/A,,Clear,260,2013-01-04 10:35:00
5:55 AM,23.0,14.0,68,29.94,10.0,West,5.8,-,N/A,,Clear,260,2013-01-04 10:55:00
6:15 AM,23.0,15.8,74,29.95,10.0,WSW,5.8,-,N/A,,Clear,250,2013-01-04 11:15:00
6:35 AM,23.0,14.0,68,29.95,10.0,WSW,5.8,-,N/A,,Clear,240,2013-01-04 11:35:00
7:15 AM,23.0,15.8,74,29.95,10.0,WSW,4.6,-,N/A,,Clear,240,2013-01-04 12:15:00
8:35 AM,26.6,17.6,69,29.96,10.0,WSW,9.2,-,N/A,,Clear,250,2013-01-04 13:35:00
8:55 AM,28.4,17.6,64,29.96,10.0,West,9.2,-,N/A,,Clear,260,2013-01-04 13:55:00
9:15 AM,30.2,17.6,60,29.96,10.0,West,11.5,20.7,N/A,,Clear,270,2013-01-04 14:15:00
9:35 AM,30.2,17.6,60,29.95,10.0,West,12.7,20.7,N/A,,Clear,260,2013-01-04 14:35:00
9:55 AM,33.8,17.6,52,29.95,10.0,West,11.5,19.6,N/A,,Clear,260,2013-01-04 14:55:00
10:15 AM,33.8,17.6,52,29.94,10.0,West,16.1,25.3,N/A,,Clear,270,2013-01-04 15:15:00
10:35 AM,33.8,17.6,52,29.94,10.0,West,16.1,26.5,N/A,,Clear,270,2013-01-04 15:35:00
10:55 AM,35.6,17.6,48,29.92,10.0,West,13.8,23.0,N/A,,Clear,270,2013-01-04 15:55:00
11:35 AM,35.6,17.6,48,29.90,10.0,West,11.5,18.4,N/A,,Clear,260,2013-01-04 16:35:00
11:55 AM,35.6,17.6,48,29.89,10.0,WSW,15.0,23.0,N/A,,Clear,250,2013-01-04 16:55:00
12:15 PM,35.6,17.6,48,29.87,10.0,WSW,10.4,19.6,N/A,,Clear,240,2013-01-04 17:15:00
12:55 PM,37.4,17.6,45,29.84,10.0,SW,9.2,19.6,N/A,,Clear,230,2013-01-04 17:55:00
1:35 PM,37.4,19.4,48,29.82,10.0,SW,11.5,23.0,N/A,,Clear,230,2013-01-04 18:35:00
1:55 PM,35.6,19.4,52,29.82,10.0,WSW,8.1,18.4,N/A,,Clear,240,2013-01-04 18:55:00
3:55 PM,35.6,19.4,52,29.82,10.0,SW,4.6,-,N/A,,Clear,230,2013-01-04 20:55:00
4:55 PM,33.8,19.4,56,29.82,10.0,WSW,6.9,-,N/A,,Clear,240,2013-01-04 21:55:00
5:15 PM,33.8,19.4,56,29.82,10.0,WSW,8.1,-,N/A,,Clear,240,2013-01-04 22:15:00
5:35 PM,33.8,19.4,56,29.83,10.0,WSW,5.8,-,N/A,,Clear,250,2013-01-04 22:35:00
5:55 PM,33.8,19.4,56,29.83,10.0,WSW,5.8,-,N/A,,Clear,240,2013-01-04 22:55:00
6:55 PM,33.8,19.4,56,29.84,10.0,SW,4.6,-,N/A,,Clear,220,2013-01-04 23:55:00
7:15 PM,32.0,19.4,60,29.85,10.0,SW,4.6,-,N/A,,Clear,230,2013-01-05 00:15:00
7:55 PM,30.2,19.4,64,29.85,10.0,SW,4.6,-,N/A,,Clear,230,2013-01-05 00:55:00
8:15 PM,30.2,19.4,64,29.85,10.0,WSW,4.6,-,N/A,,Clear,240,2013-01-05 01:15:00
8:35 PM,30.2,17.6,60,29.85,10.0,SW,4.6,-,N/A,,Clear,230,2013-01-05 01:35:00
8:55 PM,30.2,17.6,60,29.84,10.0,SW,5.8,-,N/A,,Clear,230,2013-01-05 01:55:00
9:15 PM,30.2,17.6,60,29.84,10.0,WSW,5.8,-,N/A,,Clear,240,2013-01-05 02:15:00
9:35 PM,30.2,17.6,60,29.85,10.0,SW,5.8,-,N/A,,Clear,230,2013-01-05 02:35:00
9:55 PM,30.2,17.6,60,29.85,10.0,SW,4.6,-,N/A,,Clear,230,2013-01-05 02:55:00
10:15 PM,30.2,17.6,60,29.85,10.0,WSW,4.6,-,N/A,,Clear,240,2013-01-05 03:15:00
11:15 PM,28.4,17.6,64,29.86,10.0,WSW,3.5,-,N/A,,Clear,240,2013-01-05 04:15:00
11:35 PM,28.4,15.8,59,29.86,10.0,WSW,5.8,-,N/A,,Clear,240,2013-01-05 04:35:00
11:55 PM,28.4,15.8,59,29.86,10.0,WSW,6.9,-,N/A,,Clear,240,2013-01-05 04:55:00